Flag for U.S.A. Weather past 2 weeks in Brownsville, Texas, U.S.A.

Now
75 °F

Clear.


Feels Like: 73 °F
Forecast: 76 / 92 °F
Wind: No wind

Location: Brownsville / South Padre Island International Airport

Current Time: Aug 1, 2015 at 7:43:21 AM

Latest Report: Aug 1, 2015 at 6:53 AM


Visibility: 10 mi

Pressure: 29.91 "Hg

Humidity: 96%

Dew point: 74 °F

Location of BrownsvilleLocation

Historic Weather in Brownsville — Graph

°F

Brownsville temperature yesterday

Maximum temperature yesterday: 89 °F (at 11:53 AM)
Minimum temperature yesterday: 75 °F (at 5:53 AM)
Average temperature yesterday: 82 °F

Past Weeks' High & Low Weather Summary

 TemperatureHumidityPressure
High95 °F (Jul 24, 3:53 PM)100% (Jul 31, 5:53 AM)30.06 "Hg (Jul 31, 5:53 AM)
Low75 °F (Jul 31, 5:53 AM)47% (Jul 29, 4:53 PM)29.83 "Hg (Jul 21, 6:53 PM)
Average85 °F74%29.94 "Hg
* Reported Jul 17 5:53 AM — Aug 1 5:53 AM, Brownsville, Weather by CustomWeather, © 2015

Note: Actual official high and low records may vary slightly from our data, if they occured in-between our weather recording intervals... More about our weather records

Advertising

Brownsville weather history for previous 24 hours

 ConditionsComfort  
Time TempWeatherWind HumidityBarometerVisibility
5:53 AM
Sat, Aug 1
76 °FClear.No wind94%29.90 "Hg10 mi
4:53 AM76 °FClear.No wind97%29.91 "Hg10 mi
3:53 AM77 °FClear.No wind94%29.92 "Hg10 mi
2:53 AM79 °FPassing clouds.No wind88%29.95 "Hg10 mi
1:53 AM79 °FPassing clouds.No wind88%29.96 "Hg10 mi
12:53 AM79 °FClear.3 mph88%29.96 "Hg10 mi
11:53 PM
Fri, Jul 31
80 °FClear.3 mph81%29.96 "Hg10 mi
10:53 PM81 °FClear.6 mph79%29.96 "Hg10 mi
9:53 PM82 °FClear.5 mph77%29.96 "Hg10 mi
8:53 PM82 °FSunny.5 mph77%29.94 "Hg10 mi
7:53 PM84 °FSunny.7 mph70%29.92 "Hg10 mi
6:53 PM85 °FSunny.9 mph68%29.93 "Hg10 mi
5:53 PM87 °FPassing clouds.12 mph63%29.94 "Hg10 mi
4:53 PM88 °FSunny.10 mph59%29.96 "Hg10 mi
3:53 PM87 °FPassing clouds.9 mph63%29.97 "Hg10 mi
2:53 PM87 °FSunny.10 mph65%29.98 "Hg10 mi
1:53 PM89 °FSunny.10 mph61%29.99 "Hg10 mi
12:53 PM89 °FSunny.3 mph53%30.00 "Hg10 mi
11:53 AM89 °FSunny.6 mph57%30.01 "Hg10 mi
10:53 AM85 °FSunny.No wind68%30.01 "Hg10 mi
9:53 AM84 °FPassing clouds.3 mph74%30.01 "Hg10 mi
8:53 AM81 °FSunny.No wind85%30.01 "Hg10 mi
7:53 AM77 °FClear.No wind96%30.00 "Hg9 mi
Weather by CustomWeather, © 2015

See weather overviewHow to use our weather pages